TimeEDT,TemperatureF,Dew PointF,Humidity,Sea Level PressureIn,VisibilityMPH,Wind Direction,Wind SpeedMPH,Gust SpeedMPH,PrecipitationIn,Events,Conditions,WindDirDegrees,DateUTC
12:53 AM,50.0,35.1,57,30.05,10.0,WNW,5.8,-,N/A,,Overcast,300,2012-10-07 04:53:00
1:53 AM,48.9,39.0,69,30.05,10.0,NW,10.4,-,0.00,Rain,Light Rain,310,2012-10-07 05:53:00
3:53 AM,45.0,43.0,93,30.06,10.0,South,3.5,-,0.00,,Overcast,170,2012-10-07 07:53:00
4:36 AM,44.6,42.8,93,30.05,10.0,SSW,4.6,-,0.01,Rain,Light Rain,210,2012-10-07 08:36:00
4:53 AM,45.0,43.0,93,30.06,10.0,SSW,5.8,-,0.01,Rain,Light Rain,200,2012-10-07 08:53:00
5:53 AM,45.0,43.0,93,30.05,10.0,Calm,Calm,-,0.00,,Overcast,0,2012-10-07 09:53:00
6:53 AM,45.0,42.1,90,30.05,10.0,South,3.5,-,N/A,,Overcast,180,2012-10-07 10:53:00
7:53 AM,45.0,42.1,90,30.06,10.0,South,3.5,-,N/A,,Overcast,170,2012-10-07 11:53:00
8:37 AM,46.4,42.8,87,30.06,10.0,Calm,Calm,-,N/A,,Overcast,0,2012-10-07 12:37:00
8:53 AM,46.0,42.1,86,30.07,10.0,Calm,Calm,-,0.00,Rain,Light Rain,0,2012-10-07 12:53:00
9:12 AM,46.4,42.8,87,30.06,10.0,Calm,Calm,-,0.00,Rain,Light Rain,0,2012-10-07 13:12:00
9:53 AM,46.9,42.1,83,30.07,10.0,Calm,Calm,-,0.00,,Overcast,0,2012-10-07 13:53:00
10:51 AM,46.4,42.8,87,30.07,7.0,NW,4.6,-,0.01,Rain,Light Rain,320,2012-10-07 14:51:00
10:53 AM,46.0,42.1,86,30.08,6.0,North,5.8,-,0.02,Rain,Light Rain,350,2012-10-07 14:53:00
11:07 AM,44.6,41.0,87,30.07,2.0,NNW,4.6,-,0.05,Rain,Heavy Rain,330,2012-10-07 15:07:00
11:18 AM,44.6,42.8,93,30.07,7.0,NW,3.5,-,0.06,Rain,Light Rain,320,2012-10-07 15:18:00
11:41 AM,46.4,41.0,81,30.07,10.0,Calm,Calm,-,0.06,,Overcast,0,2012-10-07 15:41:00
11:53 AM,46.0,41.0,83,30.08,10.0,Calm,Calm,-,0.06,,Overcast,0,2012-10-07 15:53:00
12:53 PM,46.9,39.9,77,30.06,10.0,West,5.8,-,N/A,,Overcast,260,2012-10-07 16:53:00
1:53 PM,46.0,41.0,83,30.06,10.0,SW,5.8,-,0.00,Rain,Light Rain,230,2012-10-07 17:53:00
2:53 PM,45.0,42.1,90,30.05,10.0,SSW,4.6,-,0.02,Rain,Light Rain,200,2012-10-07 18:53:00
3:18 PM,44.6,42.8,93,30.05,4.0,SSW,4.6,-,0.02,Rain,Light Rain,210,2012-10-07 19:18:00
3:44 PM,44.6,42.8,93,30.05,9.0,Calm,Calm,-,0.05,Rain,Light Rain,0,2012-10-07 19:44:00
3:53 PM,45.0,42.1,90,30.06,10.0,West,4.6,-,0.05,Rain,Light Rain,270,2012-10-07 19:53:00
4:53 PM,45.0,39.0,80,30.07,10.0,WSW,4.6,-,0.01,Rain,Light Rain,250,2012-10-07 20:53:00
5:02 PM,44.6,39.2,81,30.06,6.0,Variable,6.9,-,0.00,Rain,Light Rain,0,2012-10-07 21:02:00
5:53 PM,45.0,37.9,76,30.09,10.0,WNW,10.4,18.4,0.01,Rain,Light Rain,290,2012-10-07 21:53:00
6:16 PM,44.6,37.4,76,30.09,10.0,WNW,3.5,-,0.00,Rain,Light Rain,290,2012-10-07 22:16:00
6:53 PM,43.0,39.0,86,30.10,10.0,SSE,8.1,-,0.00,,Overcast,160,2012-10-07 22:53:00
7:53 PM,42.1,37.9,85,30.11,10.0,South,8.1,-,0.01,,Overcast,180,2012-10-07 23:53:00
8:53 PM,41.0,37.0,86,30.12,10.0,SSW,8.1,-,N/A,,Scattered Clouds,210,2012-10-08 00:53:00
9:53 PM,41.0,37.0,86,30.13,10.0,South,9.2,-,N/A,,Partly Cloudy,190,2012-10-08 01:53:00
10:53 PM,41.0,37.0,86,30.15,10.0,South,8.1,-,N/A,,Scattered Clouds,190,2012-10-08 02:53:00
11:53 PM,42.1,39.0,89,30.15,10.0,SSW,6.9,-,N/A,,Overcast,200,2012-10-08 03:53:00